Regional Weather Roundup
Issued by NWS

Current Version |  Previous Version |  Text Only |  Print | Product List |  Glossary Off
Versions: 1 2 3 4 5 6 7 8 9 10 11 12 13 14 15 16 17 18 19 20 21 22 23 24 25 26 27 28 29 30 31 32 33 34 35 36 37 38 39 40 41 42 43 44 45 46 47 48 49 50
447 ASUS46 KSTO 200915 RWRCA NORTHERN AND CENTRAL CA REGIONAL WEATHER ROUNDUP NATIONAL WEATHER SERVICE SACRAMENTO CA 200 AM PDT MON MAY 20 2024 NOTE: FAIR INDICATES FEW OR NO CLOUDS BELOW 12,000 FEET WITH NO SIGNIFICANT WEATHER AND/OR OBSTRUCTIONS TO VISIBILITY. CAZ001-003-201000- NORTHWEST AREA CITY SKY/WX TMP DP RH WIND PRES REMARKS CRESCENT CITY CLEAR 49 43 80 N16G28 30.15F UKIAH CLEAR 53 40 61 CALM 29.96F $$ CAZ006-505>513-201000- BAY AREA CITY SKY/WX TMP DP RH WIND PRES REMARKS SANTA ROSA CLEAR 49 46 90 CALM 29.92S SAN RAFAEL N/A 50 MM MM MISG NAPA CLEAR 54 49 83 SW13 29.91F CONCORD CLEAR 54 46 74 S16G25 29.91F OAKLAND CITY N/A 54 MM MM MISG OAKLAND PTCLDY 53 49 86 SW14 29.95F SAN FRAN CITY N/A 52 MM 82 MISG SAN FRAN ARPT MOCLDY 54 46 74 SW12 29.94S LIVERMORE CLEAR 51 44 77 NW8 29.93S HAYWARD CLEAR 56 45 66 SW9 29.95S REDWOOD CITY N/A 51 MM 76 MISG MOFFETT ARPT PTCLDY 54 46 76 SE5 29.95S SAN JOSE ARPT CLEAR 54 46 74 S10 29.95S $$ CAZ034-037-514>518-201000- CENTRAL COAST CITY SKY/WX TMP DP RH WIND PRES REMARKS WATSONVILLE CLOUDY 52 48 86 CALM 29.98F SALINAS CLOUDY 53 46 77 W8 29.99F MONTEREY CLOUDY 51 46 83 SW8 30.01S SAN LUIS OBISP CLOUDY 56 48 74 E5 29.99F SANTA MARIA CLOUDY 53 50 89 W10 30.00F HALF MOON BAY CLOUDY 52 50 93 NW7 29.97F FOG $$ CAZ015-016-201000- NORTHERN SACRAMENTO VALLEY CITY SKY/WX TMP DP RH WIND PRES REMARKS REDDING CLEAR 66 30 26 N13G24 29.95S RED BLUFF CLEAR 66 30 26 N17G29 29.93R OROVILLE CLEAR 63 53 70 SW3 29.89F $$ CAZ016>018-201000- SOUTHERN SACRAMENTO VALLEY CITY SKY/WX TMP DP RH WIND PRES REMARKS AUBURN CLEAR 57 50 77 NE5 29.91S BEALE AFB CLEAR 57 50 78 S3 29.87S LINCOLN CLEAR 54 45 71 S5 29.88S MARYSVILLE CLEAR 57 47 69 W5 29.89R SAC INTL ARPT CLEAR 57 47 69 SE7 29.87S MATHER AIRPORT CLEAR 54 45 71 CALM 29.88R DOWNTOWN SAC N/A 56 MM MM MISG SAC EXEC ARPT CLEAR 54 46 74 S3 29.88F VACAVILLE CLEAR 56 46 69 SW6 29.87S TRAVIS AFB CLEAR 54 47 77 SW20 29.86S $$ CAZ019>021-201000- SAN JOAQUIN VALLEY CITY SKY/WX TMP DP RH WIND PRES REMARKS STOCKTON CLEAR 56 43 61 W10 29.88S MODESTO CLEAR 55 41 59 NW5 29.87F MERCED CLEAR 57 41 55 W6 29.88S LEMOORE CLEAR 56 41 57 W6 29.87F FRESNO CLEAR 63 46 54 NW10 29.87S HANFORD CLEAR 66 46 48 NW10 29.87F PORTERVILLE CLEAR 58 50 75 SE3 29.89S BAKERSFIELD CLEAR 66 45 46 N3 29.89R $$ CAZ011-012-071-201000- NORTHERN MOUNTAINS CITY SKY/WX TMP DP RH WIND PRES REMARKS YREKA CLEAR 42 34 73 N12 30.16S MOUNT SHASTA CLEAR 43 31 62 N8 30.11R ALTURAS CLEAR 41 26 55 N8 30.10S $$ CAZ011-012-071-201000- SIERRA NEVADA MTNS CITY SKY/WX TMP DP RH WIND PRES REMARKS BLUE CANYON CLEAR 49 37 63 NE3 30.02F TRUCKEE CLEAR 36 34 93 CALM 30.06S TAHOE VLY ARPT CLEAR 39 32 76 S6 30.03F WCI 35 MAMMOTH LAKES CLEAR 43 31 63 W13 30.05F $$